Location: Unspecified
(29.7001°N, 0.0000°E)
Time: 15:58:01
(UTC+00:00)

SL-08 R/B - Visible Passes

Search period start: 04 April 2026 00:00
Search period end: 14 April 2026 00:00
Orbit: 666 x 730 km, 98.5° (Epoch: 29 March)

Date Brightness Start Highest point End Pass type
(mag) Time Alt. Az. Time Alt. Az. Time Alt. Az.
4 Apr 5.0 19:15:35 10° NE 19:17:34 16° E 19:17:34 16° E visible
4 Apr 4.6 20:51:51 10° N 20:56:20 38° WNW 20:56:22 38° WNW visible
5 Apr 3.6 19:55:28 10° NNE 19:59:35 46° ENE 19:59:35 46° ENE visible
5 Apr 6.1 21:34:53 10° NW 21:37:19 14° WNW 21:38:24 13° W visible
6 Apr 5.3 19:02:22 10° ENE 19:02:48 11° E 19:02:48 11° E visible
6 Apr 3.9 20:36:41 10° N 20:41:28 57° WNW 20:41:36 56° W visible
7 Apr 4.1 19:40:50 10° NE 19:44:49 32° E 19:44:49 32° E visible
7 Apr 5.7 21:19:00 10° NNW 21:22:32 20° WNW 21:23:36 19° W visible
8 Apr 3.3 20:21:40 10° N 20:26:34 85° WNW 20:26:48 80° SW visible
9 Apr 4.5 19:26:25 10° NE 19:30:00 22° E 19:30:00 22° E visible
9 Apr 5.1 21:03:32 10° NNW 21:07:42 29° WNW 21:08:47 27° W visible
10 Apr 3.3 20:06:46 10° NNE 20:11:38 65° ESE 20:11:58 63° SE visible
10 Apr 6.4 21:47:47 10° NW 21:48:38 10° WNW 21:49:28 10° WNW visible
11 Apr 4.9 19:12:24 10° ENE 19:15:09 15° E 19:15:09 15° E visible
11 Apr 4.5 20:48:15 10° N 20:52:51 43° WNW 20:53:57 37° WSW visible
12 Apr 3.7 19:52:01 10° NNE 19:56:40 43° E 19:57:06 42° ESE visible
12 Apr 6.1 21:31:01 10° NNW 21:33:51 16° WNW 21:35:55 12° W visible
13 Apr 3.7 20:33:07 10° N 20:37:58 64° WNW 20:39:05 49° SW visible
